Simultaneous Nadir Overpasses (SNOs) Predictions

Prediction of SNOs between NOAA-19 and METOP-C Satellite Orbit:

Table of predicted SNOs for the next 14.0 days since TLE Epoch: 2/22/2019
Index Date (NOAA-19) Time (NOAA-19) Lat,Lon (NOAA-19) SZA (NOAA-19 ) Date (METOP-C) Time (METOP-C) Lat,Lon (METOP-C) SZA (METOP-C ) Distance(km) Time Diff (sec)
1 03/02/2019 22:52:27 79.01,-148.83 86.19 03/02/2019 22:53:35 79.03,-148.96 86.21 3.20 68
2 03/02/2019 23:43:32 -79.02, 18.33 93.82 03/02/2019 23:44:17 -79.01, 18.26 93.83 1.81 45
3 03/03/2019 00:34:28 79.01,-174.35 86.17 03/03/2019 00:34:57 79.01,-174.39 86.17 0.80 29
4 03/03/2019 01:25:33 -79.02, -7.19 93.85 03/03/2019 01:25:39 -79.00, -7.17 93.87 2.79 6
5 03/03/2019 02:16:29 79.01, 160.13 86.14 03/03/2019 02:16:19 79.00, 160.18 86.13 1.90 10
6 03/03/2019 03:07:33 -78.99, -32.46 93.89 03/03/2019 03:07:01 -78.98, -32.60 93.91 3.26 32
7 03/03/2019 03:58:29 78.98, 134.87 86.09 03/03/2019 03:57:41 78.99, 134.75 86.08 2.57 48
8 03/03/2019 04:49:34 -78.99, -57.98 93.92 03/03/2019 04:48:23 -78.97, -58.03 93.96 2.85 71




NCC Satellite Simultaneous Nadir Overpasses (SNOs) Prediction Service
